Find Transit VE-5

NORAD ID: 959 Int'l Des: 1964-083 Owner: BUWEPS Country: US operational
LEOCIRCULARRETROGRADE

Current View

Loading 3D Globe...

About Transit VE-5

Description loading...

Upcoming Passes

Passes for default location (London). Set your location on the main map for personalized predictions.

Altitude History

Loading altitude history...

Two-Line Element Set

1 00959U 64083C 26146.60822786 .00000154 00000-0 18525-3 0 9996
2 00959 90.0080 187.3109 0042214 10.1711 105.6594 13.62487533 47277
Epoch: May 26, 2026 • Age: 7 hours

Current Status

Altitude 1055.6 km
Velocity 7.31 km/s
Sub-Earth Point 25.03°N, 155.27°E
Type other

Most Searched